Change the Weather History Date:

Saturday, August 9, 2014

  Actual Average (KWRI) Record (KWRI)
Temperature  
Mean Temperature 72 °F -  
Max Temperature 86 °F 83 °F 104 °F (2001)
Min Temperature 57 °F 64 °F 57 °F (2002)
Cooling Degree Days 6    
Growing Degree Days 22 (Base 50)    
Moisture  
Dew Point 57 °F    
Average Humidity 64    
Maximum Humidity 97    
Minimum Humidity 30    
Precipitation  
Precipitation 0.00 in - - ()
Sea Level Pressure  
Sea Level Pressure 30.10 in    
Wind  
Wind Speed 2 mph (NE)    
Max Wind Speed 7 mph    
Max Gust Speed -    
Visibility 10 miles    
Events      
Averages and records for this station are not official NWS values.
T = Trace of Precipitation, MM = Missing Value Source: NWS Daily Summary

Daily Weather History Graph

Daily Weather History Graph

Search for Another Location

Airport or City:

Trip Planner

Search our weather history database for the weather conditions in past years. The results will help you decide how hot, cold, wet, or windy it might be!

Date:

Astronomy

Aug. 09, 2014 Rise Set
Actual Time 6:05 AM EDT 8:03 PM EDT
Civil Twilight 5:35 AM EDT 8:33 PM EDT
Nautical Twilight 4:59 AM EDT 9:09 PM EDT
Astronomical Twilight 4:20 AM EDT 9:47 PM EDT
Moon 7:03 PM EDT (8/9) 4:43 AM EDT (8/9)
Length of Visible Light 14h 57m
Length of Day
13h 58m
Waxing Gibbous, 98% of the Moon is Illuminated
Aug 9
Waxing Gibbous
Aug 10
Full
Aug 17
Last Quarter
Aug 25
New
Sep 2
First Quarter

Hourly Weather History & Observations

Time (EDT) Temp. Heat Index Dew Point Humidity Pressure Visibility Wind Dir Wind Speed Gust Speed Precip Events Conditions
1:54 AM 61.0 °F - 57.0 °F 87% 30.09 in 10.0 mi Calm Calm - N/A   Clear
2:54 AM 59.0 °F - 55.9 °F 90% 30.09 in 10.0 mi Calm Calm - N/A   Clear
3:54 AM 59.0 °F - 55.9 °F 90% 30.09 in 10.0 mi Calm Calm - N/A   Unknown
4:54 AM 57.9 °F - 55.9 °F 93% 30.09 in 10.0 mi Calm Calm - N/A   Unknown
5:54 AM 57.0 °F - 55.9 °F 96% 30.11 in 10.0 mi Calm Calm - N/A   Unknown
6:54 AM 57.9 °F - 57.0 °F 97% 30.12 in 10.0 mi Calm Calm - N/A   Clear
7:54 AM 66.0 °F - 59.0 °F 78% 30.13 in 10.0 mi Calm Calm - N/A   Clear
8:54 AM 71.1 °F - 59.0 °F 66% 30.12 in 10.0 mi NNE 5.8 mph - N/A   Clear
9:54 AM 75.9 °F - 60.1 °F 58% 30.12 in 10.0 mi Variable 3.5 mph - N/A   Clear
10:54 AM 79.0 °F - 60.1 °F 52% 30.12 in 10.0 mi NNE 4.6 mph - N/A   Clear
11:54 AM 81.0 °F 80.8 °F 55.9 °F 42% 30.12 in 10.0 mi NNW 4.6 mph - N/A   Clear
1:54 PM 82.9 °F - 51.1 °F 33% 30.11 in 10.0 mi NNW 4.6 mph - N/A   Clear
2:54 PM 86.0 °F - 51.1 °F 30% 30.09 in 10.0 mi Variable 4.6 mph - N/A   Clear
3:54 PM 84.9 °F - 50.0 °F 30% 30.08 in 10.0 mi Variable 6.9 mph - N/A   Clear
4:54 PM 84.9 °F - 51.1 °F 31% 30.07 in 10.0 mi Variable 3.5 mph - N/A   Clear
5:54 PM 84.0 °F 82.6 °F 54.0 °F 35% 30.06 in 10.0 mi ESE 3.5 mph - N/A   Clear
6:54 PM 82.0 °F 81.3 °F 54.0 °F 38% 30.07 in 10.0 mi Calm Calm - N/A   Clear
7:54 PM 75.9 °F - 62.1 °F 62% 30.07 in 10.0 mi Variable 3.5 mph - N/A   Clear
8:54 PM 72.0 °F - 61.0 °F 68% 30.09 in 10.0 mi SSE 3.5 mph - N/A   Clear
9:54 PM 70.0 °F - 60.1 °F 71% 30.12 in 10.0 mi SE 3.5 mph - N/A   Clear
10:54 PM 68.0 °F - 60.1 °F 76% 30.12 in 10.0 mi Calm Calm - N/A   Clear
11:54 PM 66.9 °F - 60.1 °F 79% 30.12 in 10.0 mi Calm Calm - N/A   Clear